Weather History for KOVE - November, 2011

Change the Weather History Date:

Sunday, November 27, 2011

  Actual Average Record
Temperature  
Mean Temperature 48 °F -  
Max Temperature 55 °F 59 °F 80 °F (1959)
Min Temperature 41 °F 39 °F 26 °F (1993)
Degree Days  
Heating Degree Days 17    
Moisture  
Dew Point 45 °F    
Average Humidity 96    
Maximum Humidity 100    
Minimum Humidity 83    
Precipitation  
Precipitation 0.01 in - - ()
Sea Level Pressure  
Sea Level Pressure 30.35 in    
Wind  
Wind Speed 1 mph (North)    
Max Wind Speed 5 mph    
Max Gust Speed -    
Visibility 5 miles    
Events Fog    
Averages and records for this station are not official NWS values.
T = Trace of Precipitation, MM = Missing Value Source: NWS Daily Summary

Daily Weather History Graph

Daily Weather History Graph

Search for Another Location

Airport or City:

Trip Planner

Search our weather history database for the weather conditions in past years. The results will help you decide how hot, cold, wet, or windy it might be!

Date:

Astronomy

Nov. 27, 2011 Rise Set
Actual Time 7:03 AM PST 4:44 PM PST
Civil Twilight 6:33 AM PST 5:13 PM PST
Nautical Twilight 6:00 AM PST 5:47 PM PST
Astronomical Twilight 5:28 AM PST 6:19 PM PST
Moon 9:32 AM PST (11/27) 7:29 PM PST (11/27)
Length of Visible Light 10h 40m
Length of Day
9h 41m
Waxing Crescent, 9% of the Moon is Illuminated
Nov 27
Waxing Crescent
Dec 2
First Quarter
Dec 10
Full
Dec 17
Last Quarter
Dec 24
New

Hourly Weather History & Observations

Time (PST) Temp. Windchill Dew Point Humidity Pressure Visibility Wind Dir Wind Speed Gust Speed Precip Events Conditions
12:53 AM 43.0 °F - 43.0 °F 100% 30.37 in 0.2 mi Calm Calm - N/A Fog Fog
1:53 AM 43.0 °F 41.3 °F 43.0 °F 100% 30.37 in 0.2 mi ESE 3.5 mph - N/A Fog Fog
2:53 AM 43.0 °F - 43.0 °F 100% 30.37 in 0.2 mi Calm Calm - N/A Fog Fog
3:53 AM 43.0 °F - 43.0 °F 100% 30.35 in 0.2 mi Calm Calm - 0.01 in Fog Fog
4:53 AM 43.0 °F 41.3 °F 43.0 °F 100% 30.36 in 0.2 mi WNW 3.5 mph - N/A Fog Fog
5:53 AM 42.1 °F - 42.1 °F 100% 30.36 in 0.2 mi Calm Calm - N/A Fog Fog
6:53 AM 42.1 °F - 42.1 °F 100% 30.36 in 0.2 mi Calm Calm - N/A Fog Fog
7:53 AM 42.1 °F - 42.1 °F 100% 30.37 in 0.2 mi Calm Calm - N/A Fog Fog
8:53 AM 41.0 °F - 41.0 °F 100% 30.40 in 0.2 mi Calm Calm - N/A Fog Fog
9:53 AM 43.0 °F - 43.0 °F 100% 30.40 in 0.5 mi Calm Calm - N/A Fog Fog
10:26 AM 44.6 °F - 44.6 °F 100% 30.39 in 1.2 mi Calm Calm - N/A   Overcast
10:32 AM 46.4 °F - 44.6 °F 93% 30.39 in 3.0 mi Calm Calm - N/A   Overcast
10:50 AM 46.4 °F - 46.4 °F 100% 30.38 in 10.0 mi Calm Calm - N/A   Scattered Clouds
10:53 AM 46.9 °F - 46.9 °F 100% 30.39 in 10.0 mi Calm Calm - N/A   Partly Cloudy
11:53 AM 50.0 °F - 46.9 °F 89% 30.36 in 10.0 mi Calm Calm - N/A   Clear
12:53 PM 55.0 °F - 50.0 °F 83% 30.34 in 10.0 mi Calm Calm - N/A   Clear
1:53 PM 55.0 °F - 50.0 °F 83% 30.32 in 10.0 mi WNW 4.6 mph - N/A   Clear
2:53 PM 53.1 °F - 48.9 °F 86% 30.32 in 10.0 mi Calm Calm - N/A   Clear
3:53 PM 53.1 °F - 48.9 °F 86% 30.32 in 10.0 mi Calm Calm - N/A   Clear
4:53 PM 50.0 °F - 48.0 °F 93% 30.31 in 10.0 mi Calm Calm - N/A   Clear
5:53 PM 48.0 °F - 48.0 °F 100% 30.32 in 7.0 mi Calm Calm - N/A   Clear
6:53 PM 46.9 °F - 46.0 °F 97% 30.31 in 7.0 mi Calm Calm - N/A   Clear
7:53 PM 48.0 °F - 46.9 °F 96% 30.31 in 10.0 mi Calm Calm - N/A   Clear
8:53 PM 46.0 °F 44.8 °F 45.0 °F 96% 30.32 in 3.0 mi NNE 3.5 mph - N/A   Clear
9:53 PM 45.0 °F - 45.0 °F 100% 30.32 in 5.0 mi Calm Calm - N/A   Clear
10:53 PM 45.0 °F - 45.0 °F 100% 30.31 in 4.0 mi Calm Calm - N/A   Partly Cloudy
11:20 PM 44.6 °F - 44.6 °F 100% 30.31 in 2.5 mi Calm Calm - N/A   Scattered Clouds
11:28 PM 46.4 °F - 44.6 °F 93% 30.31 in 4.0 mi Calm Calm - N/A   Scattered Clouds
11:53 PM 45.0 °F 43.5 °F 44.1 °F 97% 30.32 in 4.0 mi SE 3.5 mph - N/A   Clear